Location: Newark
(35.5300°N, 14.3000°E)
Time: 00:51:48
(UTC+00:00)

S-56A Canister/Altair - Visible Passes

Search period start: 13 November 2019 00:00
Search period end: 23 November 2019 00:00
Orbit: 634 x 2498 km, 38.9° (Epoch: 11 November)

Date Brightness Start Highest point End Pass type
(mag) Time Alt. Az. Time Alt. Az. Time Alt. Az.
13 Nov 8.9 16:38:10 10° SW 16:46:38 45° SSE 16:51:39 14° E visible
13 Nov 8.6 18:43:46 10° WSW 18:49:06 49° W 18:49:06 49° W visible
14 Nov 7.7 18:10:24 10° WSW 18:18:05 84° NNW 18:18:15 83° NNE visible
15 Nov 8.0 17:36:58 10° WSW 17:45:22 90° S 17:47:23 46° ENE visible
15 Nov 10.4 19:43:29 10° W 19:44:49 16° WNW 19:44:49 16° WNW visible
16 Nov 8.3 17:03:28 10° WSW 17:12:37 84° SSE 17:16:30 25° ENE visible
16 Nov 9.5 19:10:14 10° W 19:13:56 30° WNW 19:13:56 30° WNW visible
17 Nov 8.6 16:29:55 10° WSW 16:39:47 78° SSE 16:45:37 13° ENE visible
17 Nov 8.5 18:36:51 10° W 18:43:02 53° NW 18:43:02 53° NW visible
18 Nov 8.0 18:03:23 10° W 18:11:32 67° N 18:12:08 64° NNE visible
19 Nov 8.3 17:29:48 10° W 17:38:44 71° N 17:41:14 39° ENE visible
19 Nov 10.2 19:36:34 10° WNW 19:38:40 20° WNW 19:38:40 20° WNW visible
20 Nov 8.5 16:56:08 10° W 17:05:53 75° N 17:10:20 22° ENE visible
20 Nov 9.3 19:03:17 10° WNW 19:07:45 35° WNW 19:07:45 35° WNW visible
21 Nov 8.7 16:22:24 10° W 16:32:58 79° NNW 16:39:26 12° ENE visible
21 Nov 8.3 18:29:53 10° WNW 18:36:51 61° NW 18:36:51 61° NW visible
22 Nov 8.0 17:56:21 10° W 18:05:03 69° N 18:05:58 61° NE visible
22 Nov 10.7 20:02:46 10° WNW 20:03:24 12° WNW 20:03:24 12° WNW visible
